Weather History for Mattoon, IL

Change the Weather History Date:

Monday, March 4, 2013

  Actual Average Record
Temperature  
Mean Temperature 32 °F 38 °F  
Max Temperature 38 °F 47 °F 78 °F (1983)
Min Temperature 25 °F 29 °F 0 °F (1978)
Degree Days  
Heating Degree Days 33 27  
Month to date heating degree days 145 110  
Since 1 July heating degree days 4108 4314  
Cooling Degree Days 0 0  
Month to date cooling degree days 0 0  
Year to date cooling degree days 0 0  
Moisture  
Dew Point 23 °F    
Average Humidity 70    
Maximum Humidity 81    
Minimum Humidity 59    
Precipitation  
Precipitation T in 0.06 in 2.42 in (1963)
Month to date precipitation 0.01 0.23  
Year to date precipitation 6.46 4.21  
Sea Level Pressure  
Sea Level Pressure 29.99 in    
Wind  
Wind Speed 10 mph (ESE)    
Max Wind Speed 17 mph    
Max Gust Speed 27 mph    
Visibility 10 miles    
Events      
T = Trace of Precipitation, MM = Missing Value Source: NWS Daily Summary

Daily Weather History Graph

Daily Weather History Graph

Search for Another Location

Airport:

Trip Planner

Search our weather history database for the weather conditions in past years. The results will help you decide how hot, cold, wet, or windy it might be!

Date:

Astronomy

Mar. 04, 2013 Rise Set
Actual Time 6:21 AM CST 5:48 PM CST
Civil Twilight 5:54 AM CST 6:15 PM CST
Nautical Twilight 5:23 AM CST 6:46 PM CST
Astronomical Twilight 4:52 AM CST 7:18 PM CST
Moon 12:29 AM CST (3/4) 10:31 AM CST (3/4)
Length of Visible Light 12h 21m
Length of Day
11h 27m
Waning Gibbous, 52% of the Moon is Illuminated
Mar 4
Waning Gibbous
Mar 4
Last Quarter
Mar 11
New
Mar 19
First Quarter
Mar 27
Full

Hourly Weather History & Observations

Time (CST) Temp. Windchill Dew Point Humidity Pressure Visibility Wind Dir Wind Speed Gust Speed Precip Events Conditions
12:53 AM 26.1 °F 21.9 °F 19.9 °F 78% 30.11 in 10.0 mi ESE 3.5 mph - N/A   Clear
1:53 AM 27.0 °F 23.0 °F 21.0 °F 78% 30.12 in 10.0 mi SE 3.5 mph - N/A   Clear
2:53 AM 27.0 °F 21.6 °F 21.0 °F 78% 30.10 in 10.0 mi ESE 4.6 mph - N/A   Clear
3:53 AM 27.0 °F 20.5 °F 21.0 °F 78% 30.10 in 10.0 mi SE 5.8 mph - N/A   Scattered Clouds
4:53 AM 28.0 °F 20.0 °F 21.0 °F 75% 30.09 in 10.0 mi SE 8.1 mph - N/A   Overcast
5:53 AM 28.0 °F 20.0 °F 19.9 °F 72% 30.08 in 10.0 mi SE 8.1 mph - N/A   Mostly Cloudy
6:53 AM 28.9 °F 20.4 °F 19.9 °F 69% 30.08 in 10.0 mi SE 9.2 mph - N/A   Overcast
7:53 AM 30.9 °F 22.2 °F 19.9 °F 64% 30.07 in 10.0 mi SE 10.4 mph - N/A   Overcast
8:53 AM 30.9 °F 21.2 °F 21.9 °F 69% 30.05 in 10.0 mi SE 12.7 mph - 0.00 in   Overcast
9:53 AM 32.0 °F 21.2 °F 23.0 °F 69% 30.04 in 10.0 mi SE 16.1 mph 25.3 mph 0.00 in   Overcast
10:53 AM 33.1 °F 23.4 °F 24.1 °F 70% 30.02 in 10.0 mi SE 13.8 mph 21.9 mph 0.00 in   Overcast
11:53 AM 33.1 °F 22.2 °F 24.1 °F 70% 29.99 in 10.0 mi ESE 17.3 mph 23.0 mph N/A   Overcast
12:53 PM 35.1 °F 24.8 °F 24.1 °F 64% 29.94 in 10.0 mi ESE 17.3 mph 26.5 mph N/A   Scattered Clouds
1:53 PM 36.0 °F 26.7 °F 24.1 °F 62% 29.91 in 10.0 mi ESE 15.0 mph 23.0 mph N/A   Mostly Cloudy
2:53 PM 36.0 °F 26.7 °F 24.1 °F 62% 29.91 in 10.0 mi ESE 15.0 mph - N/A   Overcast
3:53 PM 36.0 °F 27.1 °F 25.0 °F 64% 29.90 in 10.0 mi ESE 13.8 mph - N/A   Overcast
4:53 PM 37.0 °F 29.8 °F 25.0 °F 62% 29.91 in 10.0 mi SE 10.4 mph - N/A   Overcast
5:53 PM 36.0 °F 28.5 °F 26.1 °F 67% 29.91 in 10.0 mi East 10.4 mph - N/A   Overcast
6:53 PM 37.0 °F 29.3 °F 25.0 °F 62% 29.91 in 10.0 mi ESE 11.5 mph - N/A   Overcast
7:53 PM 37.0 °F 29.8 °F 24.1 °F 59% 29.92 in 10.0 mi ESE 10.4 mph - N/A   Overcast
8:53 PM 37.0 °F 28.9 °F 24.1 °F 59% 29.92 in 10.0 mi ESE 12.7 mph - N/A   Overcast
9:53 PM 36.0 °F 29.6 °F 26.1 °F 67% 29.91 in 10.0 mi East 8.1 mph - N/A   Overcast
10:53 PM 37.9 °F 30.5 °F 24.1 °F 57% 29.89 in 10.0 mi East 11.5 mph - N/A   Overcast
11:53 PM 37.9 °F 30.9 °F 24.1 °F 57% 29.87 in 10.0 mi East 10.4 mph - N/A   Overcast